GFSFLT2_sfc_dewp_204.txt.gz
Dewpoint
35 35 34 35 37 38 39 37 36 39 41 41 42 42 42 43 43 42 44 45 48 47 47 48 49 49 50
29 32 33 36 37 37 36 35 35 38 41 41 40 40 42 42 44 42 43 45 46 46 46 46 47 49 49
29 33 35 35 35 35 35 35 36 39 39 39 39 40 40 42 42 41 42 42 42 44 45 46 47 48 50
31 32 33 33 33 32 32 34 33 33 37 38 39 40 39 38 38 40 40 40 42 43 43 45 46 47 49
31 31 30 28 29 32 33 33 34 35 34 35 35 34 35 37 38 39 39 39 40 41 42 44 46 46 47
28 29 28 29 31 32 32 31 29 32 31 33 33 33 33 34 38 37 38 38 39 40 40 42 45 46 45
29 29 29 29 31 31 30 30 30 32 33 31 32 31 33 33 37 36 37 39 39 39 41 42 44 45 44
31 31 31 31 33 32 31 31 33 32 32 31 29 30 32 33 35 35 37 39 39 39 41 42 43 44 44
35 35 34 35 35 33 29 30 28 28 32 32 29 29 29 28 31 35 38 37 37 39 41 41 41 42 42
30 31 33 32 35 31 29 30 29 27 33 30 28 28 26 27 30 33 34 36 37 38 40 40 41 40 41
31 30 30 29 30 29 30 33 31 28 29 29 26 27 28 28 28 32 33 35 35 36 39 39 40 40 40
29 29 28 29 28 29 30 30 31 30 30 29 26 22 26 26 27 30 32 34 34 34 33 36 38 40 41
28 28 28 28 27 27 28 27 26 27 30 26 24 27 28 28 29 30 31 32 34 33 33 33 33 37 35
28 29 26 28 29 26 19 19 17 25 26 25 24 25 28 30 31 29 30 30 33 33 33 33 33 36 37
27 28 28 29 28 24 19 15 23 19 19 22 24 27 31 30 29 29 29 30 32 32 32 32 32 33 35
28 28 29 28 25 21 21 15 16 20 18 17 15 23 27 24 30 29 29 31 32 32 32 30 30 32 33
29 28 26 25 26 21 19 18 21 22 20 17 12 14 21 21 24 30 30 31 32 30 31 30 30 31 32

GFSFLT2_sfc_dewp_210.txt.gz
Dewpoint
31 32 30 30 32 34 36 34 33 37 38 38 38 39 39 39 40 40 39 39 41 41 41 42 42 43 43
28 28 29 31 32 33 33 32 33 35 37 36 36 36 39 39 40 39 38 39 39 40 40 40 41 43 44
27 29 31 31 31 31 30 30 31 34 36 35 35 36 38 39 36 37 37 38 38 38 38 39 39 40 42
27 28 29 30 29 28 27 29 30 32 33 34 35 35 36 36 36 36 37 38 37 37 37 37 38 40 40
26 27 28 27 26 27 28 28 30 31 30 31 30 31 32 34 34 36 36 35 36 36 37 37 40 39 38
25 26 26 26 27 28 27 27 25 28 29 30 30 30 30 31 34 36 34 34 34 34 35 37 37 36 37
27 27 26 27 28 28 27 27 28 30 29 28 28 28 30 30 34 32 32 33 33 34 34 34 37 37 37
27 27 28 29 30 31 31 32 30 29 29 26 26 27 30 29 32 30 30 30 31 33 33 36 35 35 37
32 33 33 34 34 31 30 29 28 26 27 27 28 26 27 27 27 29 30 30 31 32 33 34 34 36 37
27 29 32 31 34 31 29 29 29 25 29 29 27 26 24 25 25 27 27 30 31 32 33 34 34 34 33
29 31 31 29 29 29 29 29 29 27 28 25 18 23 27 25 25 25 26 27 28 28 32 34 34 35 35
28 28 28 28 27 28 29 29 29 29 28 26 16 22 26 25 23 24 26 27 29 29 31 32 34 35 38
27 27 27 27 28 27 27 27 29 28 27 24 21 20 23 24 23 24 25 26 27 30 29 30 31 33 32
27 27 27 23 26 26 24 23 24 22 27 26 18 15 16 20 22 25 25 25 26 27 28 30 32 33 33
27 26 27 27 26 29 29 24 21 15 16 22 24 20 21 21 23 23 24 23 27 27 29 30 30 31 33
26 26 25 26 26 24 23 17 18 17 18 15 11 17 17 21 26 23 22 23 25 26 28 28 28 29 32
25 25 25 26 25 23 23 23 21 22 17 12 7 15 10 14 20 26 18 22 23 25 26 27 29 29 32

GFSFLT2_sfc_dewp_216.txt.gz
Dewpoint
20 23 25 25 23 24 27 27 24 29 32 34 34 34 36 36 35 36 37 37 37 38 38 38 38 39 39
21 23 23 24 23 25 23 23 24 27 31 34 33 35 35 36 35 35 36 36 37 37 37 37 37 38 38
23 23 23 24 23 24 23 24 22 30 30 30 31 33 35 36 34 34 34 36 36 36 35 36 36 37 37
22 23 23 23 23 22 22 23 23 23 28 29 31 33 33 33 32 31 33 35 34 34 34 34 34 36 37
25 24 23 22 23 24 23 23 24 25 26 27 26 27 28 29 30 30 32 34 34 33 33 33 33 34 35
25 23 23 23 23 24 25 25 24 28 27 26 27 27 26 26 29 32 33 33 33 32 32 32 33 33 34
26 24 25 25 26 26 27 29 28 28 29 28 27 25 24 22 30 31 31 32 32 32 32 32 32 33 33
28 28 28 29 30 31 32 35 32 30 29 28 26 25 25 25 29 29 30 31 31 32 32 32 32 32 34
32 33 34 34 33 32 30 29 28 26 26 28 27 28 26 26 25 27 29 30 31 31 31 31 32 32 32
25 26 27 28 30 31 30 30 28 28 27 29 30 30 27 29 26 26 25 28 29 30 31 31 32 31 30
24 24 23 24 26 28 28 30 27 27 30 31 32 31 30 29 29 30 29 28 29 29 30 31 31 31 30
24 24 25 27 28 29 29 29 29 29 29 31 31 31 30 29 27 28 29 29 30 31 32 31 31 31 31
25 26 27 27 28 29 28 28 30 31 30 34 33 32 32 28 26 27 27 29 31 32 31 32 31 31 31
24 25 26 27 27 28 28 31 31 30 34 33 32 31 29 29 29 27 28 27 29 30 31 31 31 31 31
26 26 26 26 26 25 28 30 27 26 25 29 33 32 31 30 26 27 27 28 29 30 29 28 29 30 30
25 25 26 26 26 27 29 28 27 25 24 26 29 27 28 29 30 28 28 27 29 29 29 28 27 29 29
26 26 26 26 26 25 26 26 26 26 27 29 27 25 23 22 25 27 27 27 27 27 28 27 27 27 28

GFSFLT2_sfc_dewp_219.txt.gz
Dewpoint
26 27 27 28 26 27 29 27 28 29 30 31 34 34 34 35 36 36 36 36 37 37 38 37 37 38 38
25 26 26 27 26 26 23 21 25 28 30 32 32 32 33 35 36 36 35 35 36 37 36 37 37 37 37
25 27 27 26 26 26 25 27 23 30 28 30 32 32 33 34 34 34 33 33 34 35 34 35 35 36 36
26 26 27 27 27 26 26 27 25 23 27 29 30 31 31 32 32 33 31 32 34 34 34 34 33 34 35
28 27 27 26 26 27 26 27 26 27 29 28 28 28 29 30 31 32 31 33 33 34 34 33 33 33 34
27 25 24 25 25 27 27 26 25 30 29 29 29 28 28 28 29 30 31 32 32 32 33 33 33 33 33
28 26 26 27 28 28 29 29 29 31 30 28 30 29 28 25 30 30 30 30 31 32 32 32 32 32 33
29 29 29 30 32 31 31 31 32 33 32 29 28 26 27 28 30 30 30 29 31 30 31 31 31 32 32
30 31 32 32 31 31 30 29 27 27 28 27 27 27 27 28 28 29 29 30 30 31 30 30 31 32 31
27 27 26 27 27 29 30 28 27 26 27 27 28 29 26 28 29 28 28 30 31 29 30 30 31 29 29
27 25 25 25 28 29 29 29 28 25 27 29 29 28 28 27 28 29 29 28 27 27 30 31 31 30 29
25 25 26 28 28 28 27 27 27 27 28 28 29 29 28 27 26 27 27 28 28 28 29 30 31 31 31
25 26 27 28 26 26 27 28 29 29 29 31 32 30 27 26 26 25 26 27 28 28 28 28 28 28 28
25 26 27 27 27 27 26 26 25 27 28 29 31 30 28 27 26 25 26 25 27 27 27 27 27 28 28
27 27 26 25 25 24 25 25 25 24 25 25 27 28 30 29 25 25 25 26 26 26 26 25 26 27 27
26 26 25 24 24 24 26 23 23 23 23 24 25 25 24 24 27 27 27 25 25 25 25 25 24 25 25
26 25 24 25 24 24 24 24 22 21 22 24 25 26 22 18 22 27 23 24 24 25 25 24 24 25 25